Weather History for White Mountain, AK

Change the Weather History Date:

Saturday, November 10, 2012

  Actual Average (PAKK) Record (PAKK)
Temperature  
Mean Temperature 19 °F -  
Max Temperature 26 °F 19 °F 39 °F (2014)
Min Temperature 12 °F 11 °F 1 °F (1999)
Degree Days  
Heating Degree Days 46    
Moisture  
Dew Point 16 °F    
Average Humidity 84    
Maximum Humidity 96    
Minimum Humidity 71    
Precipitation  
Precipitation 0.00 in - - ()
Sea Level Pressure  
Sea Level Pressure 29.74 in    
Wind  
Wind Speed 9 mph ()    
Max Wind Speed 16 mph    
Max Gust Speed -    
Visibility 9.1 miles    
Events Snow    
Averages and records for this station are not official NWS values.
T = Trace of Precipitation, MM = Missing Value Source: Averaged Metar Reports

Daily Weather History Graph

Daily Weather History Graph

Search for Another Location

Airport:

Trip Planner

Search our weather history database for the weather conditions in past years. The results will help you decide how hot, cold, wet, or windy it might be!

Date:

Astronomy

Nov. 10, 2012 Rise Set
Actual Time 10:13 AM AKST 5:01 PM AKST
Civil Twilight 9:13 AM AKST 6:00 PM AKST
Nautical Twilight 8:12 AM AKST 7:01 PM AKST
Astronomical Twilight 7:15 AM AKST 7:58 PM AKST
Moon 5:20 AM AKST (11/10) 3:56 PM AKST (11/10)
Length of Visible Light 8h 47m
Length of Day
6h 48m
Waning Crescent, 13% of the Moon is Illuminated
Nov 10
Waning Crescent
Nov 13
New
Nov 20
First Quarter
Nov 28
Full
Dec 6
Last Quarter

Hourly Weather History & Observations

Time (AKST) Temp. Windchill Dew Point Humidity Pressure Visibility Wind Dir Wind Speed Gust Speed Precip Events Conditions
12:58 AM 25.0 °F 17.1 °F 23.0 °F 92% 29.69 in 9.0 mi North 6.9 mph - 0.00 in Snow Light Snow
1:58 AM 24.1 °F 14.4 °F 21.9 °F 91% 29.69 in 7.0 mi North 9.2 mph - 0.00 in Snow Light Snow
3:58 AM 23.0 °F 13.1 °F 21.0 °F 92% 29.69 in 9.0 mi North 9.2 mph - 0.00 in Snow Light Snow
4:58 AM 21.9 °F 11.7 °F 19.9 °F 92% 29.69 in 10.0 mi North 9.2 mph - N/A   Overcast
5:58 AM 19.9 °F 8.6 °F 18.0 °F 92% 29.69 in 10.0 mi North 10.4 mph - N/A   Mostly Cloudy
6:58 AM 19.0 °F 7.5 °F 18.0 °F 96% 29.70 in 10.0 mi North 10.4 mph - N/A   Clear
7:58 AM 19.9 °F 8.6 °F 18.0 °F 92% 29.69 in 10.0 mi North 10.4 mph - N/A   Partly Cloudy
8:58 AM 19.9 °F 7.3 °F 18.0 °F 92% 29.70 in 9.0 mi North 12.7 mph - N/A   Clear
9:58 AM 19.9 °F 7.9 °F 18.0 °F 92% 29.71 in 8.0 mi North 11.5 mph - N/A   Mostly Cloudy
10:58 AM 19.9 °F 6.2 °F 17.1 °F 89% 29.73 in 8.0 mi North 15.0 mph - N/A   Clear
11:58 AM 21.0 °F 9.9 °F 18.0 °F 88% 29.73 in 9.0 mi North 10.4 mph - N/A   Clear
12:58 PM 25.0 °F 13.6 °F 19.9 °F 81% 29.74 in 8.0 mi NNW 12.7 mph - N/A   Clear
1:58 PM 26.1 °F 16.2 °F 21.0 °F 81% 29.75 in 8.0 mi NNW 10.4 mph - N/A   Clear
2:58 PM 25.0 °F 15.5 °F 19.0 °F 78% 29.75 in 9.0 mi NNW 9.2 mph - N/A   Clear
4:58 PM 19.0 °F 5.0 °F 12.0 °F 74% 29.75 in 8.0 mi NNW 15.0 mph - N/A   Clear
5:58 PM 17.1 °F 3.0 °F 10.0 °F 74% 29.77 in 10.0 mi North 13.8 mph - N/A   Clear
6:58 PM 16.0 °F 0.6 °F 9.0 °F 74% 29.77 in 10.0 mi NNW 16.1 mph - N/A   Clear
8:58 PM 14.0 °F -0.8 °F 7.0 °F 74% 29.79 in 10.0 mi North 13.8 mph - N/A   Clear
9:58 PM 14.0 °F 0.5 °F 6.1 °F 71% 29.80 in 10.0 mi NNW 11.5 mph - N/A   Clear
10:58 PM 12.9 °F -0.9 °F 6.1 °F 74% 29.81 in 10.0 mi North 11.5 mph - N/A   Clear
11:58 PM 12.9 °F -0.9 °F 6.1 °F 74% 29.82 in 10.0 mi North 11.5 mph - N/A   Clear